Location: *
(11.5833°N, 2.0500°W)
Time: 08:18:23
(UTC+00:00)

Daily predictions for brighter satellites

Satellite Brightness Start Highest point End
(mag) Time Altitude Azimuth Time Altitude Azimuth Time Altitude Azimuth
ARIANE 44LP R/B 4.0 18:41:02 10° WSW 18:44:34 50° SSE 19:01:06 10° E
Cosmos 1703 4.1 18:51:26 10° SSE 18:54:57 31° E 18:58:27 10° NNE
YAOGAN 1 2.5 18:51:00 10° SSE 18:55:19 80° ENE 18:59:37 10° N
Aurora 2 Rocket 4.1 18:56:52 10° S 18:59:29 17° SE 19:02:35 10° ESE
CZ-2C R/B 3.8 18:59:56 10° NNE 19:04:41 76° ESE 19:09:27 10° S
SL-4 R/B 3.5 19:02:30 10° S 19:05:58 21° ESE 19:09:33 10° ENE
CSL-04 Rocket 4.0 19:01:01 10° S 19:06:25 73° WSW 19:11:44 10° NNW
Cosmos 44 3.6 19:01:08 10° SSW 19:06:31 90° ESE 19:11:49 10° NNE
ARIANE 5 DEB (SYLDA) 3.9 19:06:58 10° SSW 19:09:08 20° SSE 19:13:18 11° ESE
Orbus 7S 3.6 19:04:22 10° WSW 19:09:49 63° NNW 19:12:24 10° NE
CZ-4 R/B 3.1 19:08:35 10° SSW 19:12:25 36° W 19:16:17 10° NNW
ARIANE 3 DEB 3.0 19:12:40 10° WSW 19:14:43 22° S 19:15:54 15° SE
ADEOS Rocket 4.3 19:12:50 10° ENE 19:15:21 13° E 19:16:39 12° ESE
Meteor 1-11 4.3 19:11:09 10° S 19:16:43 56° E 19:22:20 10° NNE
Shenzhou-11 Module 2.3 19:15:11 10° NNW 19:17:53 45° NE 19:19:41 18° ESE
SJ-6B 4.3 19:27:15 16° E 19:27:54 17° ENE 19:30:22 10° NE
Aureole 1 Rocket 3.8 19:28:20 19° SE 19:29:45 24° E 19:33:13 10° NE
Cosmos 1980 Rocket 3.4 19:26:40 10° SW 19:32:04 46° WNW 19:37:26 10° N
Cosmos-2242 4.1 19:34:04 10° NNW 19:38:08 45° W 19:42:13 10° SSW
USA 186 2.5 19:45:08 31° ENE 19:45:08 31° ENE 19:47:32 10° NNE
PAYLOAD A 4.0 19:38:38 10° WSW 19:45:51 41° S 19:47:21 29° SE
Cosmos 1842 Rocket 3.8 19:43:24 10° NNE 19:47:37 46° E 19:49:12 31° SE
GPS 2-18 Rocket1 2.9 19:50:39 10° WSW 19:54:33 90° NNW 19:55:47 41° ENE
Centaur AC-146 2.5 19:52:34 10° WNW 19:54:38 35° N 19:56:30 20° NE
NATO 3D Rocket 3.6 19:50:36 10° WNW 19:55:23 67° SSW 19:57:49 34° SE
Tsikada Rocket 4.3 19:49:56 10° NNE 19:55:52 44° E 19:58:20 30° SE
FREGAT/IRIS 3.1 19:55:42 36° SSW 19:56:31 53° WSW 19:59:18 10° NNW
H-2A R/B 3.2 19:56:30 26° E 19:56:51 26° ENE 20:01:17 10° NNE
Cosmos 2322 Rocket 2.2 19:51:30 10° S 19:57:03 57° ESE 20:02:37 10° NNE
SJ-11-01 4.2 20:00:27 37° SSE 20:02:11 67° ENE 20:06:48 10° N
SL-16 R/B 2.1 19:56:35 10° S 20:02:14 78° ESE 20:07:53 10° NNE
Cosmos 1455 2.0 20:00:05 10° N 20:03:48 87° W 20:04:39 52° S
Cosmos 2227 Rocket 2.3 19:58:39 10° NNW 20:04:17 76° WSW 20:07:49 24° S
SWIFT 2.7 20:08:16 10° WSW 20:11:50 49° SSW 20:11:50 49° SSW
ARGOS 3.6 20:16:37 41° ENE 20:16:37 41° ENE 20:21:29 10° N
Resurs 01 Rocket 3.5 20:18:39 19° NE 20:18:39 19° NE 20:20:21 10° NNE
Cosmos 1271 Rocket 4.4 20:16:50 10° SSW 20:20:16 33° W 20:23:46 10° NNW
Cosmos 2251 Rocket 4.2 20:16:10 10° SSW 20:21:17 54° WNW 20:26:24 10° N
USA 229 DEB 4.0 20:15:52 10° S 20:23:34 41° ENE 20:28:19 10° NE
USA 229 4.1 20:15:59 10° S 20:23:59 38° ENE 20:28:25 10° NE
Cosmos 2058 3.0 20:23:02 74° WSW 20:23:11 75° W 20:27:21 10° N
Cosmos 2297 Rocket 3.3 20:21:35 10° NW 20:26:49 40° WSW 20:30:05 21° SSW
Cosmos 2346 Rocket 4.4 20:22:18 10° N 20:28:19 78° W 20:30:51 37° S
IRIDIUM 104 4.3 20:25:13 10° N 20:29:51 63° NE 20:29:51 63° NE
DMSP B5D2-2 3.9 20:26:41 10° NNE 20:31:45 80° E 20:31:45 80° E
Cosmos 1072 Rocket 4.4 20:33:16 63° E 20:33:16 63° E 20:39:11 10° NNE
SPOT 3 Rocket 4.2 20:34:35 36° SSW 20:36:19 50° WSW 20:41:22 10° NNW
GPS 2-12 Rocket1 4.1 20:35:08 10° WNW 20:38:37 38° NNW 20:38:37 38° NNW
IRIDIUM 114 4.3 20:34:18 10° N 20:38:58 73° N 20:38:58 73° N
Cosmos 2082 4.2 20:34:39 10° NNW 20:40:12 55° WSW 20:41:28 45° SSW
Skynet4D Del rocket 3.6 20:38:24 10° WNW 20:44:32 83° W 20:44:32 83° W
SL-4 R/B 4.2 20:41:22 10° WSW 20:45:30 30° NW 20:49:45 10° N
Aurora 2 Rocket 4.0 20:47:33 10° WSW 20:50:06 36° WSW 20:50:06 36° WSW
Cosmos 2221 4.2 20:51:43 10° NNW 20:55:18 30° W 20:55:18 30° W
ADEOS Rocket 3.9 20:55:40 10° N 21:00:43 40° WNW 21:03:37 23° SW
ATLAS 3B CENTAUR R/B 4.0 20:41:13 10° WNW 21:06:31 89° SSW 21:09:47 61° ESE
Ariane H10+ 3.9 20:36:42 10° W 21:07:10 63° SSW 21:08:45 59° SSE
Cosmos 2360 Rocket 3.6 21:13:47 31° N 21:13:47 31° N 21:16:43 10° N
GOES 2 Rocket 4.4 21:03:01 10° WSW 21:11:18 75° WSW 21:11:18 75° WSW
H-2A R/B 4.3 21:37:08 21° W 21:37:08 21° W 21:40:12 10° NW
